Location: Newark
(48.9320°N, 2.2664°E)
Time: 15:57:27
(UTC+00:00)

Transit 2A - Visible Passes

Search period start: 19 February 2020 00:00
Search period end: 29 February 2020 00:00
Orbit: 600 x 959 km, 66.7° (Epoch: 19 February)

Date Brightness Start Highest point End Pass type
(mag) Time Alt. Az. Time Alt. Az. Time Alt. Az.
19 Feb 8.0 19:13:41 10° N 19:15:26 12° NNE 19:16:07 11° NNE visible
19 Feb 8.3 20:55:37 10° NNW 20:56:37 15° NNW 20:56:37 15° NNW visible
20 Feb 8.1 18:40:07 10° N 18:40:52 10° NNE 18:41:38 10° NNE visible
20 Feb 7.9 20:21:38 10° NNW 20:23:31 19° N 20:23:31 19° N visible
21 Feb 7.6 19:47:39 10° NNW 19:50:27 20° NNE 19:50:27 20° NNE visible
21 Feb 8.6 21:30:11 10° NW 21:30:57 15° NW 21:30:57 15° NW visible
22 Feb 7.6 19:13:43 10° NNW 19:16:57 17° NNE 19:17:24 17° NE visible
22 Feb 7.9 20:56:05 10° NNW 20:57:54 23° NNW 20:57:54 23° NNW visible
23 Feb 7.8 18:39:48 10° N 18:42:29 14° NNE 18:44:23 12° NE visible
23 Feb 7.2 20:22:01 10° NNW 20:24:53 31° N 20:24:53 31° N visible
23 Feb 9.0 22:05:18 10° NW 22:05:23 10° NW 22:05:23 10° NW visible
24 Feb 7.9 18:05:57 10° N 18:07:59 12° NNE 18:10:03 10° NE visible
24 Feb 6.9 19:47:59 10° NNW 19:51:55 34° NNE 19:51:55 34° NNE visible
24 Feb 8.3 21:30:59 10° NW 21:32:26 19° NW 21:32:26 19° NW visible
25 Feb 7.0 19:13:59 10° NNW 19:18:14 28° NE 19:19:00 27° NE visible
25 Feb 7.5 20:56:45 10° NW 20:59:30 33° NW 20:59:30 33° NW visible
26 Feb 7.3 18:40:01 10° NNW 18:43:53 22° NE 18:46:09 17° ENE visible
26 Feb 6.4 20:22:35 10° NW 20:26:39 60° NNW 20:26:39 60° NNW visible
26 Feb 8.9 22:07:01 10° WNW 22:07:10 10° WNW 22:07:10 10° WNW visible
27 Feb 7.5 18:06:03 10° NNW 18:09:29 18° NNE 18:13:06 10° ENE visible
27 Feb 5.9 19:48:29 10° NNW 19:53:30 66° NE 19:53:52 64° ENE visible
27 Feb 8.3 21:32:16 10° WNW 21:34:23 19° W 21:34:23 19° W visible
28 Feb 6.3 19:14:24 10° NNW 19:19:18 49° NE 19:21:08 35° E visible
28 Feb 7.5 20:57:46 10° NW 21:01:41 32° W 21:01:41 32° W visible
